AEZ7835 LIML-LIRF

Flight info

Callsign AEZ7835
Flight time 0h 55m
Altitude 33000
Route EKPAL DCT TINKU DCT XIBIL
Aircraft B738/M-SDE2E3FGHIRWXY/LB1

Departure

Time 2026-05-04 15:41
Airport Milano Linate Airport (LIML)

Arrival

Time 2026-05-04 16:37
Airport Rome–Fiumicino Leonardo da Vinci International Airport (LIRF)
Time Latitude Longitude Altitude Speed Heading
2026-05-04 14:54 45.45774 9.27887 359 ft 0 kts 90°
2026-05-04 15:34 45.45774 9.27927 359 ft 5 kts 90°
2026-05-04 15:34 45.45757 9.27973 360 ft 6 kts 150°
2026-05-04 15:34 45.45647 9.27979 361 ft 9 kts 181°
2026-05-04 15:35 45.45499 9.27977 359 ft 12 kts 181°
2026-05-04 15:35 45.45413 9.27977 359 ft 13 kts 180°
2026-05-04 15:35 45.45329 9.27935 361 ft 13 kts 207°
2026-05-04 15:36 45.45145 9.27872 359 ft 15 kts 175°
2026-05-04 15:36 45.45040 9.27884 362 ft 16 kts 175°
2026-05-04 15:36 45.44931 9.27906 364 ft 16 kts 163°
2026-05-04 15:37 45.44817 9.27941 359 ft 17 kts 175°
2026-05-04 15:37 45.44693 9.27955 359 ft 19 kts 175°
2026-05-04 15:37 45.44552 9.27969 365 ft 22 kts 175°
2026-05-04 15:37 45.44392 9.27986 362 ft 23 kts 175°
2026-05-04 15:38 45.44234 9.28004 359 ft 22 kts 175°
2026-05-04 15:38 45.44081 9.28021 359 ft 22 kts 175°
2026-05-04 15:38 45.43932 9.28036 359 ft 21 kts 175°
2026-05-04 15:38 45.43787 9.28052 362 ft 21 kts 176°
2026-05-04 15:39 45.43646 9.28067 363 ft 20 kts 175°
2026-05-04 15:39 45.43521 9.28081 360 ft 13 kts 175°
2026-05-04 15:39 45.43443 9.27945 360 ft 10 kts 265°
2026-05-04 15:40 45.43450 9.27851 368 ft 10 kts 299°
2026-05-04 15:40 45.43507 9.27815 361 ft 9 kts 355°
2026-05-04 15:40 45.43592 9.27806 366 ft 29 kts 355°
2026-05-04 15:40 45.44079 9.27753 358 ft 107 kts 355°
2026-05-04 15:41 45.45034 9.27649 365 ft 164 kts 355°
2026-05-04 15:41 45.45551 9.27591 481 ft 173 kts 354°
2026-05-04 15:41 45.46827 9.27435 931 ft 196 kts 353°
2026-05-04 15:41 45.48234 9.27490 1563 ft 211 kts 14°
2026-05-04 15:42 45.49372 9.28867 1966 ft 235 kts 69°
2026-05-04 15:42 45.49288 9.31105 2450 ft 233 kts 123°
2026-05-04 15:42 45.48119 9.32599 3065 ft 228 kts 147°
2026-05-04 15:42 45.46847 9.33989 3590 ft 232 kts 141°
2026-05-04 15:43 45.45678 9.35574 4168 ft 232 kts 136°
2026-05-04 15:43 45.44346 9.36815 4728 ft 229 kts 163°
2026-05-04 15:43 45.42846 9.37584 5316 ft 230 kts 158°
2026-05-04 15:43 45.41382 9.38546 5816 ft 233 kts 154°
2026-05-04 15:44 45.39946 9.39637 6340 ft 235 kts 151°
2026-05-04 15:44 45.38519 9.40791 6830 ft 236 kts 150°
2026-05-04 15:44 45.37095 9.41969 7325 ft 237 kts 150°
2026-05-04 15:44 45.35668 9.43157 7823 ft 238 kts 151°
2026-05-04 15:45 45.34235 9.44354 8316 ft 240 kts 151°
2026-05-04 15:45 45.32790 9.45564 8805 ft 243 kts 151°
2026-05-04 15:45 45.31317 9.46802 9324 ft 247 kts 151°
2026-05-04 15:45 45.29837 9.48050 9852 ft 249 kts 152°
2026-05-04 15:46 45.28325 9.49322 10310 ft 257 kts 152°
2026-05-04 15:46 45.26764 9.50635 10811 ft 264 kts 152°
2026-05-04 15:46 45.25160 9.51983 11317 ft 272 kts 152°
2026-05-04 15:46 45.23514 9.53365 11830 ft 278 kts 152°
2026-05-04 15:47 45.21793 9.54668 12337 ft 282 kts 160°
2026-05-04 15:47 45.19954 9.55655 12867 ft 285 kts 163°
2026-05-04 15:47 45.18059 9.56575 13402 ft 290 kts 163°
2026-05-04 15:47 45.16143 9.57511 13855 ft 299 kts 163°
2026-05-04 15:48 45.14156 9.58507 14272 ft 307 kts 163°
2026-05-04 15:48 45.12117 9.59547 14698 ft 315 kts 162°
2026-05-04 15:48 45.07899 9.61752 15535 ft 331 kts 160°
2026-05-04 15:49 45.05764 9.63080 15968 ft 339 kts 158°
2026-05-04 15:49 45.03602 9.64513 16409 ft 347 kts 157°
2026-05-04 15:49 45.01401 9.65990 16845 ft 353 kts 157°
2026-05-04 15:49 44.99158 9.67489 17285 ft 359 kts 158°
2026-05-04 15:50 44.96875 9.69003 17735 ft 365 kts 158°
2026-05-04 15:50 44.94557 9.70529 18200 ft 371 kts 158°
2026-05-04 15:50 44.92201 9.72074 18621 ft 376 kts 158°
2026-05-04 15:50 44.89814 9.73634 19026 ft 380 kts 158°
2026-05-04 15:51 44.87399 9.75208 19421 ft 385 kts 158°
2026-05-04 15:51 44.84956 9.76799 19840 ft 389 kts 158°
2026-05-04 15:51 44.82490 9.78403 20259 ft 392 kts 158°
2026-05-04 15:51 44.80003 9.80019 20672 ft 395 kts 158°
2026-05-04 15:52 44.77500 9.81645 21100 ft 398 kts 158°
2026-05-04 15:52 44.74975 9.83284 21537 ft 400 kts 158°
2026-05-04 15:52 44.72437 9.84928 21964 ft 402 kts 158°
2026-05-04 15:52 44.69893 9.86574 22410 ft 404 kts 157°
2026-05-04 15:53 44.67469 9.88613 22826 ft 410 kts 141°
2026-05-04 15:53 44.65453 9.91471 23319 ft 412 kts 135°
2026-05-04 15:53 44.63490 9.94401 23743 ft 412 kts 135°
2026-05-04 15:53 44.61518 9.97326 24127 ft 413 kts 136°
2026-05-04 15:54 44.59557 10.00203 24515 ft 413 kts 136°
2026-05-04 15:54 44.57562 10.03102 24912 ft 414 kts 137°
2026-05-04 15:54 44.55536 10.06028 25062 ft 422 kts 137°
2026-05-04 15:54 44.53466 10.09009 25077 ft 432 kts 137°
2026-05-04 15:55 44.51341 10.12065 25084 ft 443 kts 137°
2026-05-04 15:55 44.49910 10.14117 25094 ft 449 kts 137°
2026-05-04 15:55 44.47456 10.16835 25061 ft 453 kts 155°
2026-05-04 15:55 44.44548 10.18559 25094 ft 457 kts 162°
2026-05-04 15:56 44.41532 10.20107 25081 ft 465 kts 162°
2026-05-04 15:56 44.38467 10.21659 25087 ft 472 kts 162°
2026-05-04 15:56 44.35360 10.23244 25084 ft 478 kts 162°
2026-05-04 15:56 44.32243 10.24855 25073 ft 479 kts 162°
2026-05-04 15:57 44.29116 10.26490 25070 ft 477 kts 162°
2026-05-04 15:57 44.26007 10.28126 25076 ft 477 kts 162°
2026-05-04 15:57 44.22906 10.29762 25077 ft 476 kts 162°
2026-05-04 15:57 44.19801 10.31399 25088 ft 477 kts 162°
2026-05-04 15:58 44.16736 10.33012 25089 ft 477 kts 162°
2026-05-04 15:58 44.13627 10.34646 25095 ft 478 kts 162°
2026-05-04 15:58 44.10514 10.36279 25097 ft 478 kts 162°
2026-05-04 15:58 44.07397 10.37911 25103 ft 478 kts 162°
2026-05-04 15:59 44.04284 10.39540 25105 ft 479 kts 162°
2026-05-04 15:59 44.01162 10.41171 25110 ft 479 kts 162°
2026-05-04 15:59 43.98035 10.42803 25108 ft 479 kts 162°
2026-05-04 15:59 43.94920 10.44427 25114 ft 479 kts 162°
2026-05-04 16:00 43.91797 10.46054 25112 ft 478 kts 162°
2026-05-04 16:00 43.88676 10.47677 25112 ft 479 kts 162°
2026-05-04 16:00 43.85551 10.49301 25103 ft 480 kts 162°
2026-05-04 16:00 43.82425 10.50924 25106 ft 480 kts 162°
2026-05-04 16:01 43.79293 10.52549 25101 ft 480 kts 162°
2026-05-04 16:01 43.76158 10.54172 25094 ft 480 kts 162°
2026-05-04 16:01 43.73017 10.55732 25109 ft 481 kts 163°
2026-05-04 16:01 43.69841 10.57217 25104 ft 482 kts 164°
2026-05-04 16:02 43.66651 10.58671 25109 ft 482 kts 164°
2026-05-04 16:02 43.63470 10.60114 25106 ft 482 kts 164°
2026-05-04 16:02 43.57106 10.63021 25116 ft 481 kts 164°
2026-05-04 16:03 43.53967 10.64466 25110 ft 481 kts 164°
2026-05-04 16:03 43.50789 10.65933 25109 ft 482 kts 164°
2026-05-04 16:03 43.47612 10.67400 25125 ft 483 kts 164°
2026-05-04 16:03 43.44411 10.68878 25127 ft 484 kts 164°
2026-05-04 16:04 43.41210 10.70356 25121 ft 485 kts 164°
2026-05-04 16:04 43.34805 10.73306 25113 ft 486 kts 164°
2026-05-04 16:04 43.31608 10.74775 25126 ft 485 kts 164°
2026-05-04 16:05 43.28409 10.76243 25125 ft 484 kts 165°
2026-05-04 16:05 43.25220 10.77705 25129 ft 484 kts 164°
2026-05-04 16:05 43.18829 10.80630 25120 ft 484 kts 165°
2026-05-04 16:06 43.15634 10.82090 25124 ft 484 kts 165°
2026-05-04 16:06 43.07118 10.85972 25119 ft 486 kts 165°
2026-05-04 16:07 43.04686 10.87078 25119 ft 486 kts 165°
2026-05-04 16:07 42.95020 10.91467 25136 ft 496 kts 165°
2026-05-04 16:08 42.91745 10.92953 25127 ft 495 kts 164°
2026-05-04 16:08 42.81991 10.97556 25111 ft 497 kts 155°
2026-05-04 16:09 42.76891 11.03888 25137 ft 505 kts 124°
2026-05-04 16:09 42.73161 11.12030 24787 ft 504 kts 123°
2026-05-04 16:10 42.69489 11.20006 24098 ft 498 kts 123°
2026-05-04 16:11 42.66512 11.33326 22916 ft 492 kts 114°
2026-05-04 16:11 42.64847 11.37344 22546 ft 486 kts 127°
2026-05-04 16:12 42.58353 11.47700 21356 ft 474 kts 146°
2026-05-04 16:12 42.49346 11.50943 20219 ft 437 kts 172°
2026-05-04 16:13 42.43600 11.53255 19334 ft 427 kts 160°
2026-05-04 16:13 42.38286 11.56649 18499 ft 417 kts 156°
2026-05-04 16:14 42.33180 11.60175 17553 ft 407 kts 156°
2026-05-04 16:14 42.28169 11.63567 16604 ft 399 kts 156°
2026-05-04 16:15 42.20800 11.68488 15187 ft 389 kts 156°
2026-05-04 16:16 42.16061 11.71905 14276 ft 383 kts 158°
2026-05-04 16:16 42.08942 11.76236 12800 ft 381 kts 133°
2026-05-04 16:17 42.07319 11.82782 11852 ft 382 kts 84°
2026-05-04 16:18 42.11511 11.91550 10436 ft 376 kts 45°
2026-05-04 16:18 42.13220 11.94168 9894 ft 370 kts 59°
2026-05-04 16:19 42.12537 12.03260 8394 ft 329 kts 133°
2026-05-04 16:19 42.09425 12.07578 7413 ft 315 kts 135°
2026-05-04 16:20 42.05285 12.13613 6066 ft 299 kts 134°
2026-05-04 16:20 42.02597 12.17545 5431 ft 272 kts 134°
2026-05-04 16:21 41.97962 12.20641 4287 ft 238 kts 164°
2026-05-04 16:22 41.94891 12.21853 3468 ft 222 kts 163°
2026-05-04 16:22 41.90744 12.23573 2076 ft 192 kts 165°
2026-05-04 16:23 41.87127 12.25084 1993 ft 189 kts 164°
2026-05-04 16:24 41.82842 12.28440 2665 ft 195 kts 111°
2026-05-04 16:25 41.83231 12.31947 3017 ft 205 kts 64°
2026-05-04 16:26 41.86259 12.38547 3697 ft 209 kts 58°
2026-05-04 16:26 41.89880 12.41216 3998 ft 223 kts 350°
2026-05-04 16:27 41.92824 12.40159 3983 ft 215 kts 344°
2026-05-04 16:28 41.97149 12.38479 3991 ft 214 kts 344°
2026-05-04 16:28 42.01384 12.36834 3954 ft 211 kts 343°
2026-05-04 16:29 42.03311 12.30905 3947 ft 184 kts 259°
2026-05-04 16:30 42.02558 12.25925 3805 ft 181 kts 254°
2026-05-04 16:31 42.01990 12.22634 3567 ft 180 kts 253°
2026-05-04 16:31 41.99130 12.20994 3064 ft 171 kts 181°
2026-05-04 16:32 41.95926 12.21805 2558 ft 148 kts 168°
2026-05-04 16:33 41.94037 12.22359 1954 ft 135 kts 171°
2026-05-04 16:33 41.92178 12.22994 1576 ft 144 kts 166°
2026-05-04 16:34 41.90276 12.23772 1423 ft 141 kts 166°
2026-05-04 16:34 41.89358 12.24155 1271 ft 135 kts 166°
2026-05-04 16:35 41.86737 12.25262 639 ft 127 kts 168°
2026-05-04 16:35 41.84179 12.26327 72 ft 125 kts 162°
2026-05-04 16:36 41.83403 12.26654 13 ft 108 kts 162°
2026-05-04 16:36 41.82233 12.27144 9 ft 71 kts 162°
2026-05-04 16:37 41.81579 12.27413 13 ft 26 kts 163°
2026-05-04 16:37 41.81450 12.27409 12 ft 12 kts 192°
2026-05-04 16:37 41.81342 12.27259 11 ft 11 kts 230°
2026-05-04 16:38 41.81195 12.27251 11 ft 12 kts 163°
2026-05-04 16:39 41.80894 12.27345 11 ft 18 kts 186°
2026-05-04 16:39 41.80663 12.27238 12 ft 18 kts 241°
2026-05-04 16:40 41.80577 12.26936 12 ft 17 kts 250°
2026-05-04 16:40 41.80512 12.26701 16 ft 16 kts 250°
2026-05-04 16:41 41.80439 12.26438 14 ft 14 kts 249°
2026-05-04 16:41 41.80339 12.26073 13 ft 16 kts 250°
2026-05-04 16:42 41.80190 12.25534 13 ft 22 kts 250°
2026-05-04 16:43 41.80071 12.25190 13 ft 20 kts 208°
2026-05-04 16:43 41.79867 12.25068 13 ft 1 kts 176°
2026-05-04 16:43 41.79865 12.25075 13 ft 1 kts 113°
2026-05-04 16:44 41.79834 12.25171 13 ft 0 kts 115°
2026-05-04 16:46 41.84230 12.26305 78 ft 125 kts 162°